FW0237 Weather Reports


Display with metric or nautical units.
time (UTC)temp
F
wind
direction
speed
MPH
gust
MPH
rain 1hr
in
rain 24hr
in
rain mn
in
humidity
%
barometer
mb
20210412200350 60 78 0.0 4.0 0.00 0.15 0.00 86 1007.4
20210412200153 60 207 1.0 7.0 0.00 0.15 0.00 86 1007.4
20210412195916 60 104 1.0 7.0 0.00 0.15 0.00 85 1007.3
20210412195144 60 70 1.0 5.0 0.00 0.15 0.00 85 1007.2
20210412194248 60 84 1.0 5.0 0.00 0.15 0.00 85 1007.3
20210412193748 60 38 1.0 5.0 0.00 0.15 0.00 84 1007.3
20210412193249 60 74 0.0 6.0 0.00 0.15 0.00 83 1007.4
20210412192932 60 96 0.0 6.0 0.00 0.15 0.00 83 1007.2
20210412192837 61 92 0.0 0.0 0.00 0.15 0.00 83 1007.0
20210412191802 61 97 0.0 4.0 0.00 0.15 0.00 83 1006.9
20210412191256 61 111 0.0 4.0 0.00 0.15 0.00 82 1007.0
20210412190749 61 13 0.0 3.0 0.00 0.15 0.00 81 1007.1
20210412190431 62 103 1.0 8.0 0.00 0.15 0.00 80 1007.0
20210412190159 62 94 1.0 8.0 0.00 0.15 0.00 79 1007.0
20210412185916 62 323 0.0 8.0 0.00 0.15 0.00 78 1007.0
20210412184825 63 78 0.0 2.0 0.00 0.15 0.00 77 1007.0
20210412184243 64 336 0.0 2.0 0.00 0.15 0.00 76 1007.1
20210412183745 64 151 0.0 4.0 0.00 0.15 0.00 76 1007.1
20210412183252 64 104 0.0 5.0 0.00 0.15 0.00 75 1007.0
20210412183116 64 142 0.0 5.0 0.00 0.15 0.00 74 1007.0
20210412182901 65 80 1.0 6.0 0.00 0.15 0.00 74 1007.1
20210412181902 65 316 1.0 6.0 0.00 0.15 0.00 74 1007.0
20210412181304 65 307 0.0 4.0 0.00 0.15 0.00 73 1006.9
20210412180745 66 192 1.0 5.0 0.00 0.15 0.00 71 1006.8
20210412180159 67 97 1.0 8.0 0.00 0.15 0.00 69 1006.7
20210412175941 67 11 2.0 8.0 0.00 0.15 0.00 70 1006.8
20210412174910 67 44 3.0 10.0 0.00 0.15 0.00 69 1006.8
20210412174238 67 98 2.0 10.0 0.00 0.15 0.00 68 1006.7
20210412173739 68 325 1.0 6.0 0.00 0.15 0.00 70 1006.7
20210412173243 67 328 1.0 6.0 0.00 0.15 0.00 68 1006.6
20210412173037 67 41 0.0 5.0 0.00 0.15 0.00 68 1006.7
20210412172849 67 50 0.0 1.0 0.00 0.15 0.00 70 1006.7
20210412171810 67 98 0.0 2.0 0.00 0.15 0.00 71 1006.7
20210412171240 66 114 0.0 5.0 0.00 0.15 0.00 72 1006.7
20210412170924 66 96 1.0 6.0 0.00 0.15 0.00 70 1006.7
20210412170629 66 74 0.0 6.0 0.00 0.15 0.00 71 1006.8
20210412170110 67 101 0.0 6.0 0.00 0.15 0.00 71 1006.7
20210412165804 66 83 1.0 6.0 0.00 0.15 0.00 71 1006.7
20210412164800 66 329 0.0 5.0 0.00 0.15 0.00 72 1006.8
20210412164236 66 0 1.0 7.0 0.00 0.15 0.00 72 1006.8
20210412163737 65 355 1.0 9.0 0.00 0.15 0.00 73 1006.7
20210412163235 66 61 1.0 9.0 0.00 0.15 0.00 71 1006.7
20210412162944 66 90 1.0 8.0 0.00 0.15 0.00 71 1006.7
20210412162749 65 55 1.0 8.0 0.00 0.15 0.00 74 1006.6
20210412161741 65 295 2.0 9.0 0.00 0.15 0.00 74 1006.6
20210412161233 65 13 1.0 9.0 0.00 0.15 0.00 74 1006.7
20210412160738 65 5 1.0 7.0 0.00 0.15 0.00 75 1006.7
20210412160233 64 20 1.0 7.0 0.00 0.15 0.00 76 1006.7
20210412160042 63 23 1.0 6.0 0.00 0.15 0.00 76 1006.7
20210412155829 63 5 3.0 8.0 0.00 0.15 0.00 77 1006.9
20210412154940 62 9 2.0 8.0 0.00 0.15 0.00 78 1007.0
20210412154241 63 35 1.0 5.0 0.00 0.15 0.00 78 1007.0
20210412153730 63 323 2.0 8.0 0.00 0.15 0.00 80 1006.9
20210412153250 62 333 2.0 9.0 0.00 0.15 0.00 80 1007.1
20210412153000 62 306 1.0 9.0 0.00 0.15 0.00 82 1007.0
20210412152820 62 16 2.0 8.0 0.00 0.15 0.00 79 1007.2
20210412151825 62 341 3.0 8.0 0.00 0.15 0.00 81 1007.2
20210412151234 62 355 2.0 8.0 0.00 0.15 0.00 81 1007.2
20210412150730 62 101 2.0 8.0 0.00 0.15 0.00 80 1007.2
20210412150306 62 311 2.0 8.0 0.00 0.15 0.00 80 1007.1
20210412150041 62 355 2.0 7.0 0.00 0.15 0.00 82 1007.1
20210412145844 62 30 0.0 7.0 0.00 0.15 0.00 81 1007.1
20210412144908 62 317 0.0 4.0 0.00 0.15 0.00 82 1007.1
20210412144230 62 54 2.0 6.0 0.00 0.15 0.00 82 1007.1
20210412143729 60 17 3.0 11.0 0.00 0.15 0.00 84 1007.1
20210412143312 60 71 4.0 11.0 0.00 0.15 0.00 84 1007.0
20210412143037 60 57 3.0 11.0 0.00 0.15 0.00 85 1006.9
20210412142723 60 36 3.0 11.0 0.00 0.15 0.00 85 1006.9
20210412141736 60 327 4.0 12.0 0.00 0.15 0.00 85 1006.7
20210412141225 60 9 4.0 12.0 0.00 0.15 0.00 85 1006.7
20210412140725 60 14 4.0 11.0 0.00 0.15 0.00 86 1006.6
20210412140243 59 17 4.0 11.0 0.00 0.15 0.00 86 1006.5
20210412140058 59 355 4.0 12.0 0.00 0.15 0.00 87 1006.4
20210412135756 59 80 5.0 13.0 0.00 0.15 0.00 87 1006.2
20210412134728 59 355 4.0 13.0 0.00 0.15 0.00 87 1006.0
20210412134225 60 16 3.0 10.0 0.00 0.15 0.00 87 1005.9
20210412133725 59 340 3.0 10.0 0.00 0.15 0.00 86 1005.7
20210412133233 59 321 5.0 13.0 0.00 0.15 0.00 86 1005.8
20210412132833 59 34 3.0 13.0 0.00 0.15 0.00 86 1005.8
20210412132457 60 332 1.0 8.0 0.00 0.15 0.00 85 1005.8
20210412131726 60 351 2.0 8.0 0.00 0.15 0.00 85 1005.6
20210412131221 60 339 2.0 8.0 0.00 0.15 0.00 87 1005.6
20210412130728 60 48 2.0 7.0 0.00 0.15 0.00 87 1005.6
20210412130223 59 294 2.0 7.0 0.00 0.15 0.00 87 1005.4
20210412125944 59 349 3.0 8.0 0.00 0.15 0.00 87 1005.3
20210412124743 59 329 2.0 12.0 0.00 0.15 0.00 88 1005.2
20210412124224 59 17 2.0 12.0 0.00 0.15 0.00 88 1005.3
20210412123717 59 15 3.0 11.0 0.00 0.15 0.00 89 1005.3
20210412123236 59 351 4.0 11.0 0.00 0.15 0.00 88 1005.2
20210412122835 60 43 3.0 10.0 0.00 0.15 0.00 87 1005.1
20210412121741 60 329 3.0 9.0 0.00 0.15 0.00 87 1005.0
20210412121228 60 103 3.0 8.0 0.00 0.15 0.00 87 1005.1
20210412120717 60 81 3.0 8.0 0.00 0.15 0.00 87 1005.1
20210412120220 60 286 3.0 9.0 0.00 0.15 0.00 88 1005.0
20210412115921 60 39 2.0 6.0 0.00 0.15 0.00 89 1004.9
20210412115027 60 339 1.0 8.0 0.00 0.15 0.00 88 1004.9
20210412114230 60 34 2.0 9.0 0.00 0.15 0.00 88 1004.8
20210412113715 61 329 2.0 9.0 0.00 0.15 0.00 87 1004.8
20210412113219 61 323 1.0 5.0 0.00 0.15 0.00 88 1004.7
20210412112843 61 341 2.0 4.0 0.00 0.15 0.00 88 1004.6
20210412112619 61 336 1.0 3.0 0.00 0.15 0.00 87 1004.6
20210412111723 61 325 0.0 0.0 0.00 0.15 0.00 87 1004.6
20210412111219 61 328 0.0 0.0 0.00 0.15 0.00 86 1004.5
20210412110720 61 327 0.0 0.0 0.00 0.15 0.00 85 1004.4
20210412110216 61 327 0.0 0.0 0.00 0.15 0.00 85 1004.3
20210412105941 61 327 0.0 0.0 0.00 0.15 0.00 84 1004.3
20210412105822 61 327 0.0 0.0 0.00 0.15 0.00 84 1004.2
20210412104737 60 328 0.0 0.0 0.00 0.16 0.00 83 1004.2
20210412104223 61 331 0.0 0.0 0.00 0.17 0.00 81 1004.2
20210412103713 60 330 0.0 0.0 0.00 0.18 0.00 80 1004.2
20210412103214 61 331 0.0 0.0 0.00 0.18 0.00 79 1004.3
20210412102946 61 327 0.0 0.0 0.00 0.19 0.00 79 1004.2
20210412102747 61 327 0.0 0.0 0.00 0.19 0.00 78 1004.2
20210412101733 61 327 0.0 0.0 0.00 0.19 0.00 78 1004.3
20210412101215 62 327 0.0 0.0 0.00 0.19 0.00 76 1004.2
20210412100712 62 327 0.0 0.0 0.00 0.20 0.00 75 1004.2
20210412100217 62 327 0.0 0.0 0.00 0.22 0.00 75 1004.0
20210412100044 62 327 0.0 0.0 0.00 0.22 0.00 75 1004.0
20210412095822 62 327 0.0 0.0 0.00 0.22 0.00 74 1003.7
20210412094716 63 314 0.0 0.0 0.00 0.23 0.00 74 1003.6
20210412094215 63 319 0.0 0.0 0.00 0.23 0.00 74 1003.4
20210412093710 62 313 0.0 0.0 0.00 0.24 0.00 74 1003.2
20210412093214 62 327 0.0 0.0 0.00 0.24 0.00 74 1003.0
20210412092830 62 338 0.0 0.0 0.00 0.24 0.00 74 1002.9
20210412092543 62 339 0.0 0.0 0.00 0.25 0.00 74 1002.9
20210412091706 62 341 0.0 0.0 0.00 0.25 0.00 75 1002.9
20210412091219 62 331 0.0 0.0 0.00 0.25 0.00 76 1002.8
20210412090716 62 336 0.0 0.0 0.00 0.26 0.00 78 1002.7
20210412090246 62 291 0.0 0.0 0.00 0.26 0.00 78 1002.7
20210412090031 62 291 0.0 0.0 0.00 0.27 0.00 79 1002.6
20210412085730 62 291 0.0 0.0 0.00 0.28 0.00 79 1002.6
20210412084702 62 291 0.0 0.0 0.00 0.29 0.00 78 1002.5
20210412084201 62 291 0.0 0.0 0.00 0.30 0.00 79 1002.6
20210412083658 62 292 0.0 0.0 0.00 0.31 0.00 79 1002.4
20210412083219 62 294 0.0 0.0 0.00 0.32 0.00 80 1002.4
20210412082926 62 294 0.0 0.0 0.00 0.32 0.00 80 1002.5
20210412082647 62 294 0.0 0.0 0.00 0.32 0.00 80 1002.4
20210412081658 62 294 0.0 0.0 0.00 0.32 0.00 79 1002.4
20210412081201 63 294 0.0 0.0 0.00 0.32 0.00 78 1002.4
20210412080700 63 294 0.0 0.0 0.00 0.32 0.00 77 1002.4
20210412080200 63 294 0.0 0.0 0.00 0.32 0.00 76 1002.4
20210412075847 64 296 0.0 0.0 0.00 0.32 0.00 75 1002.3
20210412075452 64 296 0.0 0.0 0.00 0.32 0.00 75 1002.3
20210412074700 64 295 0.0 0.0 0.00 0.32 0.00 75 1002.3
20210412074214 64 303 0.0 0.0 0.00 0.32 0.00 75 1002.2
20210412073658 64 303 0.0 7.0 0.00 0.32 0.00 76 1002.2
20210412073159 63 281 0.0 7.0 0.00 0.32 0.00 77 1002.3
20210412072941 63 283 0.0 0.0 0.00 0.32 0.00 79 1002.1
20210412072759 63 258 0.0 0.0 0.00 0.32 0.00 80 1002.0
20210412071702 63 273 0.0 0.0 0.00 0.32 0.00 81 1002.0
20210412071211 63 255 0.0 0.0 0.00 0.32 0.00 82 1001.9
20210412070700 64 277 0.0 0.0 0.00 0.32 0.00 83 1001.9
20210412070223 64 276 0.0 0.0 0.00 0.32 0.00 83 1001.9
20210412065834 64 273 0.0 0.0 0.00 0.32 0.00 82 1001.8
20210412065619 64 269 0.0 3.0 0.00 0.32 0.00 83 1001.7
20210412064703 64 240 0.0 3.0 0.00 0.32 0.00 83 1001.5
20210412064203 64 234 0.0 6.0 0.00 0.32 0.00 83 1001.4
20210412063658 64 246 1.0 6.0 0.00 0.32 0.00 84 1001.4
20210412063211 64 271 0.0 4.0 0.00 0.32 0.00 85 1001.5
20210412062850 64 180 0.0 0.0 0.00 0.32 0.00 85 1001.4
20210412061658 64 161 0.0 0.0 0.00 0.32 0.00 84 1001.4
20210412061151 64 164 0.0 0.0 0.00 0.32 0.00 84 1001.3
20210412060756 65 202 0.0 0.0 0.00 0.32 0.00 84 1001.4
20210412060152 65 200 0.0 0.0 0.00 0.32 0.00 84 1001.4
20210412055901 65 201 0.0 0.0 0.00 0.32 0.00 84 1001.4
20210412055521 65 196 0.0 0.0 0.00 0.32 0.00 84 1001.5
20210412054655 65 197 0.0 0.0 0.00 0.32 0.00 84 1001.5
20210412054210 65 194 0.0 0.0 0.00 0.32 0.00 84 1001.5
20210412053650 65 197 1.0 7.0 0.00 0.32 0.00 84 1001.5
20210412053152 65 198 1.0 7.0 0.00 0.32 0.00 84 1001.6
20210412052846 65 182 0.0 4.0 0.00 0.32 0.00 84 1001.4
20210412051652 65 181 0.0 4.0 0.00 0.32 0.00 84 1001.5
20210412051217 65 196 0.0 0.0 0.00 0.32 0.00 83 1001.4
20210412050655 66 201 0.0 2.0 0.00 0.32 0.00 83 1001.5
20210412050258 66 212 0.0 2.0 0.00 0.32 0.00 83 1001.3
20210412045844 66 227 0.0 2.0 0.00 0.32 0.00 83 1001.3
20210412044652 66 193 0.0 0.0 0.00 0.32 0.00 83 1001.3
20210412044148 66 163 0.0 0.0 0.00 0.32 0.00 83 1001.3
20210412043650 66 167 0.0 0.0 0.00 0.32 0.00 84 1001.3
20210412043423 66 182 0.0 0.0 0.00 0.32 0.00 84 1001.3
20210412043041 65 190 0.0 0.0 0.00 0.32 0.00 84 1001.2
20210412042657 66 194 0.0 0.0 0.01 0.32 0.00 83 1001.2
20210412041653 66 196 0.0 0.0 0.01 0.32 0.00 82 1001.2
20210412041147 67 196 0.0 0.0 0.01 0.32 0.00 81 1001.0
20210412040652 67 198 0.0 0.0 0.01 0.32 0.00 81 1001.0
20210412040145 67 197 0.0 3.0 0.01 0.32 0.00 81 1001.0
20210412035857 67 195 0.0 3.0 0.01 0.32 0.32 81 1001.0
20210412035440 67 193 0.0 1.0 0.01 0.32 0.32 80 1000.9
20210412034646 67 192 0.0 1.0 0.01 0.32 0.32 80 1001.1
20210412034157 67 192 0.0 0.0 0.01 0.32 0.32 80 1001.0
20210412033644 67 190 0.0 0.0 0.01 0.32 0.32 80 1000.9
20210412033143 68 190 0.0 0.0 0.01 0.32 0.32 80 1001.0
20210412032904 68 244 0.0 5.0 0.01 0.32 0.32 80 1001.0
20210412032454 68 251 0.0 5.0 0.00 0.31 0.31 80 1001.0
20210412031642 67 192 0.0 0.0 0.00 0.31 0.31 81 1000.9
20210412031142 67 192 0.0 0.0 0.00 0.31 0.31 82 1000.9
20210412030646 67 194 0.0 0.0 0.00 0.31 0.31 82 1000.8
20210412030145 67 193 0.0 0.0 0.00 0.31 0.31 83 1000.8
20210412025854 67 198 0.0 0.0 0.00 0.31 0.31 83 1000.8
20210412025558 67 209 0.0 0.0 0.00 0.31 0.31 83 1000.9
20210412024654 67 210 0.0 0.0 0.00 0.31 0.31 84 1000.7
20210412024140 67 215 0.0 0.0 0.00 0.31 0.31 84 1000.7
20210412023640 67 205 0.0 2.0 0.01 0.31 0.31 85 1000.7
20210412023147 67 205 0.0 2.0 0.05 0.31 0.31 86 1000.7
20210412022926 66 205 0.0 1.0 0.13 0.31 0.31 86 1000.7
20210412022722 66 205 0.0 0.0 0.14 0.31 0.31 86 1000.8
20210412021644 66 205 0.0 0.0 0.14 0.31 0.31 86 1000.7
20210412021146 67 205 0.0 0.0 0.14 0.31 0.31 84 1000.8
20210412020640 67 205 0.0 0.0 0.14 0.31 0.31 81 1000.8
20210412020140 68 205 0.0 3.0 0.14 0.31 0.31 79 1000.7
20210412015816 68 209 0.0 3.0 0.14 0.31 0.31 79 1000.9
20210412015359 67 291 0.0 0.0 0.14 0.31 0.31 79 1000.9
20210412014640 67 216 0.0 0.0 0.14 0.31 0.31 79 1000.8
20210412014138 67 198 0.0 2.0 0.14 0.31 0.31 79 1000.8
20210412013636 67 216 3.0 14.0 0.13 0.30 0.31 75 1000.8
20210412013306 70 243 3.0 14.0 0.09 0.26 0.26 68 1001.0
20210412013049 73 242 0.0 14.0 0.01 0.18 0.18 65 1001.4
20210412012610 73 192 0.0 0.0 0.00 0.17 0.17 64 1000.6
20210412011636 73 194 0.0 0.0 0.00 0.17 0.17 63 1000.4
20210412011140 73 159 0.0 0.0 0.00 0.17 0.17 63 1000.2
20210412010636 73 144 0.0 0.0 0.00 0.17 0.17 62 1000.0
20210412010133 74 159 0.0 0.0 0.00 0.17 0.17 62 999.9
20210412004754 74 184 0.0 0.0 0.00 0.17 0.17 61 1000.0
20210412004138 74 189 0.0 0.0 0.00 0.17 0.17 60 1000.0
20210412003638 74 173 0.0 0.0 0.00 0.17 0.17 60 1000.1
20210412003237 75 187 0.0 0.0 0.00 0.17 0.17 59 999.9
20210412002945 75 189 0.0 0.0 0.00 0.17 0.17 59 999.9
20210412001632 75 194 0.0 0.0 0.00 0.17 0.17 59 999.8
20210412001131 75 160 0.0 0.0 0.00 0.17 0.17 59 999.8
20210412000657 75 177 0.0 0.0 0.00 0.17 0.17 58 999.7
20210412000141 75 186 0.0 0.0 0.00 0.17 0.17 58 999.8
20210411235916 76 172 0.0 0.0 0.00 0.17 0.17 57 999.7
20210411235619 76 195 0.0 0.0 0.00 0.17 0.17 57 999.7
20210411234638 76 198 0.0 0.0 0.00 0.17 0.17 57 999.6
20210411234128 76 217 0.0 0.0 0.00 0.17 0.17 56 999.6
20210411233632 76 217 0.0 0.0 0.00 0.17 0.17 55 999.5
20210411233236 77 146 0.0 0.0 0.00 0.17 0.17 54 999.4
20210411233023 77 202 0.0 0.0 0.00 0.17 0.17 54 999.4
20210411232835 77 224 0.0 0.0 0.00 0.17 0.17 53 999.4
20210411231646 77 211 0.0 0.0 0.00 0.17 0.17 53 999.3
20210411231224 78 198 0.0 0.0 0.00 0.17 0.17 52 999.2
20210411230641 78 184 0.0 0.0 0.00 0.17 0.17 53 999.1
20210411230133 78 208 0.0 0.0 0.00 0.17 0.17 53 999.2
20210411225913 78 224 0.0 0.0 0.00 0.17 0.17 52 999.1
20210411225455 78 254 0.0 9.0 0.00 0.17 0.17 53 999.1
20210411224638 78 227 1.0 9.0 0.00 0.17 0.17 53 999.2
20210411224131 78 186 2.0 6.0 0.00 0.17 0.17 53 999.2
20210411223631 78 139 1.0 7.0 0.00 0.17 0.17 53 999.2
20210411223318 78 171 1.0 9.0 0.00 0.17 0.17 53 999.1
20210411223107 78 188 1.0 9.0 0.00 0.17 0.17 53 999.3
20210411222841 78 167 2.0 6.0 0.00 0.17 0.17 54 999.4
20210411221639 78 194 2.0 9.0 0.00 0.17 0.17 54 999.3
20210411221133 78 191 2.0 9.0 0.00 0.17 0.17 53 999.3
20210411220644 78 189 1.0 9.0 0.00 0.17 0.17 54 999.3
20210411220452 78 156 2.0 9.0 0.00 0.17 0.17 53 999.5
20210411215950 79 186 3.0 9.0 0.00 0.17 0.17 51 999.6
20210411215559 79 217 2.0 9.0 0.00 0.17 0.17 51 999.6
20210411214626 79 196 2.0 11.0 0.00 0.17 0.17 51 999.6
20210411214127 79 180 1.0 11.0 0.00 0.17 0.17 51 999.6
20210411213624 79 173 0.0 0.0 0.00 0.17 0.17 51 999.6
20210411213248 79 188 0.0 0.0 0.00 0.17 0.17 51 999.6
20210411212949 78 211 0.0 0.0 0.00 0.17 0.17 51 999.6
20210411212505 79 213 0.0 5.0 0.00 0.17 0.17 51 999.5
20210411211635 79 199 1.0 6.0 0.00 0.17 0.17 51 999.5
20210411211125 79 229 1.0 11.0 0.00 0.17 0.17 50 999.4
20210411210630 80 173 1.0 11.0 0.00 0.17 0.17 50 999.4
20210411210121 80 355 1.0 9.0 0.00 0.17 0.17 49 999.5
20210411205923 80 231 2.0 9.0 0.00 0.17 0.17 49 999.5
20210411205537 79 254 2.0 10.0 0.00 0.17 0.17 51 999.6
20210411204623 79 159 2.0 10.0 0.00 0.17 0.17 51 999.5
20210411204117 79 229 3.0 18.0 0.00 0.17 0.17 50 999.5
20210411203651 79 279 2.0 18.0 0.00 0.17 0.17 48 999.6
20210411203432 79 189 0.0 10.0 0.00 0.17 0.17 49 999.7
20210411203109 80 204 2.0 10.0 0.00 0.17 0.17 48 999.8
20210411202816 80 217 2.0 10.0 0.00 0.17 0.17 48 999.9
20210411201657 80 169 2.0 11.0 0.00 0.17 0.17 49 999.8
20210411201112 79 140 2.0 11.0 0.00 0.17 0.17 49 999.8